EHI
0 0 0 0 0 0 0 0 0 0 0 0 0 0 0 0 0 0 0 0 0 0 0 0 0 0 0 0 0 0 0 0 0 0 0 0 0 0
0 0 0 0 0 0 0 0 0 0 0 0 0 0 0 0 0 0 0 0 0 0 0 0 0 0 0 0 0 0 0 0 0 0 0 0 0 0
0 0 0 0 0 0 0 0 0 0 0 0 0 0 0 0 0 0 0 0 0 0 0 0 0 0 0 0 0 0 0 0 0 0 0 0 0 0
0 0 0 0 0 0 0 0 0 0 0 0 0 0 0 0 0 0 0 0 0 0 0 0 0 0 0 0 0 0 0 0 0 0 0 0 0 0
0 0 0 0 0 0 0 0 0 0 0 0 0 0 0 0 0 0 0 0 0 0 0 0 0 0 0 0 0 0 0 0 0 0 0 0 0 0
0 0 0 0 0 0 0 0 0 0 0 0 0 0 0 0 0 0 0 0 0 0 0 0 0 0 0 0 0 0 0 0 0 0 0 0 0 0
0 0 0 0 0 0 0 0 0 0 0 0 0 0 0 0 0 0 0 0 0 0 0 0 0 0 0 0 0 0 0 0 0 0 0 0 0 0
0 0 0 0 0 0 0 0 0 0 0 0 0 0 0 0 0 0 0 0 0 0 0 0 0 0 0 0 0 0 0 0 0 0 0 0 0 0
0 0 0 0 0 0 0 0 0 0 0 0 0 0 0 0 0 0 0 0 0 0 0 0 0 0 0 0 0 0 0 0 0 0 0 0 0 0
0 0 0 0 0 0 0 0 0 0 0 0 0 0 0 0 0 0 0 0 0 0 0 0 0 0 0 0 0 0 0 0 0 0 0 0 0 0
0 0 0 0 0 0 0 0 0 0 0 0 0 0 0 0 0 0 0 0 0 0 0 0 0 0 0 0 0 0 0 0 0 0 0 0 0 0
0 0 0 0 0 0 0 0 0 0 0 0 0 0 0 0 0 0 0 0 0 0 0 0 0 0 0 0 0 0 0 0 0 0 0 0 0 0
0 0 0 0 0 0 0 0 0 0 0 0 0 0 0 0 0 0 0 0 0 0 0 0 0 0 0 0 0 0 0 0 0 0 0 0 0 0
0 0 0 0 0 0 0 0 0 0 0 0 0 0 0 0 0 0 0 0 0 0 0 0 0 0 0 0 0 0 0 0 0 0 0 0 0 0
0 0 0 0 0 0 0 0 0 0 0 0 0 0 0 0 0 0 0 0 0 0 0 0 0 0 0 0 0 0 0 0 0 0 0 0 0 0
0 0 0 0 0 0 0 0 0 0 0 0 0 0 0 0 0 0 0 0 0 0 0 0 0 0 0 0 0 0 0 0 0 0 0 0 0 0
0 0 0 0 0 0 0 0 0 0 0 0 0 0 0 0 0 0 0 0 0 0 0 0 0 0 0 0 0 0 0 0 0 0 0 0 0 0
0 0 0 0 0 0 0 0 0 0 0 0 0 0 0 0 0 0 0 0 0 0 0 0 0 0 0 0 0 0 0 0 0 0 0 0 0 0
0 0 0 0 0 0 0 0 0 0 0 0 0 0 0 0 0 0 0 0 0 0 0 0 0 0 0 0 0 0 0 0 0 0 0 0 0 0
0 0 0 0 0 0 0 0 0 0 0 0 0 0 0 0 0 0 0 0 0 0 0 0 0 0 0 0 0 0 0 0 0 0 0 0 0 0
0 0 0 0 0 0 0 0 0 0 0 0 0 0 0 0 0 0 0 0 0 0 0 0 0 0 0 0 0 0 0 0 0 0 0 0 0 0
0 0 0 0 0 0 0 0 0 0 0 0 0 0 0 0 0 0 0 0 0 0 0 0 0 0 0 0 0 0 0 0 0 0 0 0 0 0
0 0 0 0 0 0 0 0 0 0 0 0 0 0 0 0 0 0 0 0 0 0 0 0 0 0 0 0 0 0 0 0 0 0 0 0 0 0
Wind_Speed
3 4 3 4 4 4 4 4 6 11 11 5 3 3 5 6 13 10 9 21 30 32 31 30 30 31 33 35 35 36 36 36 36 37 38 37 35 34
3 4 5 4 4 4 5 5 6 10 14 6 7 7 8 10 18 13 11 27 29 29 29 30 33 35 36 36 36 35 34 34 34 35 36 35 35 35
5 5 7 6 5 5 5 5 7 8 14 14 9 8 9 10 11 9 10 10 12 23 29 33 35 35 35 34 34 33 33 32 32 32 31 32 33 34
7 7 8 7 7 5 5 7 8 8 11 17 13 11 11 11 11 10 11 10 9 23 31 32 32 32 32 32 31 32 33 34 33 32 31 30 31 32
6 7 8 8 8 7 8 8 8 9 8 12 15 13 11 10 10 11 10 10 13 18 25 26 29 31 32 32 33 34 33 33 32 32 31 31 32 32
6 7 7 8 9 9 9 8 8 8 9 11 13 12 11 9 8 11 13 8 10 12 17 22 27 31 31 32 32 32 32 32 32 32 32 32 32 32
6 7 8 12 14 12 11 9 9 10 11 12 11 11 11 10 11 11 15 14 10 9 12 12 12 11 13 22 27 29 31 32 32 32 32 32 32 32
7 7 8 10 14 20 24 24 21 15 12 9 11 14 15 13 12 13 14 16 16 7 9 13 10 12 10 9 21 30 31 32 32 32 32 32 32 32
8 8 9 10 16 11 17 21 15 21 23 17 15 14 16 15 15 16 15 16 17 13 13 16 11 13 11 14 27 31 32 32 32 32 32 32 31 32
9 9 10 10 12 16 14 10 9 10 16 12 11 13 13 12 13 15 16 17 15 11 10 15 13 13 14 12 24 30 32 32 32 31 31 30 30 30
9 9 10 10 19 25 15 10 11 11 17 21 23 23 27 26 21 13 12 13 15 13 8 10 13 15 14 13 16 26 28 28 30 31 31 31 31 31
6 7 13 17 22 25 13 9 12 13 13 13 15 18 16 17 21 13 11 13 14 12 6 6 11 12 11 8 8 9 14 23 29 29 29 29 30 19
6 5 7 21 24 24 20 9 16 18 12 12 12 12 11 10 10 10 10 11 14 14 12 11 11 11 10 12 12 10 10 10 12 16 21 26 28 24
7 6 9 23 24 23 16 19 24 19 9 10 11 11 10 11 11 12 13 13 13 16 17 15 12 13 13 15 14 11 10 10 10 12 11 18 22 27
8 18 21 22 20 14 18 22 17 9 10 10 11 11 9 10 11 11 12 12 14 13 12 13 13 12 11 13 12 12 13 11 9 9 11 12 13 13
8 12 18 18 15 16 15 12 8 9 11 10 11 12 11 9 10 10 12 12 12 12 9 10 10 11 11 13 12 13 12 10 11 12 12 11 11 11
12 4 6 8 8 9 9 9 9 10 10 10 11 12 12 12 12 10 10 11 11 12 13 10 8 8 11 11 9 10 12 12 11 11 11 11 10 10
13 7 8 8 9 10 11 11 10 10 10 10 10 10 11 12 12 11 10 10 11 11 11 11 12 10 6 5 8 9 10 11 13 12 11 11 10 9
8 7 7 9 9 10 10 10 11 11 10 10 10 11 11 11 11 11 11 11 10 10 10 9 9 8 10 10 9 8 11 13 14 12 13 12 11 11
7 8 8 9 10 10 10 10 11 11 10 10 11 11 10 10 11 11 10 11 11 10 10 9 8 8 8 8 7 9 15 15 13 15 15 10 10 13
8 8 9 9 10 10 10 10 11 11 11 11 11 11 10 10 10 10 10 15 12 8 10 9 9 14 8 6 6 8 9 16 18 14 17 13 12 14
9 9 10 10 10 10 10 11 11 11 12 11 11 10 10 9 10 12 11 10 8 8 8 8 9 7 4 4 6 8 9 11 14 18 21 21 12 12
9 10 10 11 10 10 10 11 13 12 11 11 10 10 10 10 10 10 10 9 7 7 8 7 6 5 4 3 5 5 9 11 10 10 11 22 24 24
Wind_Direction
277 269 250 245 240 243 250 262 285 300 304 267 259 283 290 285 290 293 284 292 296 295 295 295 297 296 294 292 290 289 287 284 281 278 274 271 268 266
272 268 259 247 242 243 246 256 257 275 289 287 291 282 279 290 293 292 285 292 296 294 293 294 293 291 290 290 288 287 284 282 280 277 274 271 269 267
296 286 276 267 254 249 250 257 261 266 282 294 292 291 282 277 285 276 275 274 276 284 288 289 289 289 289 288 287 286 286 285 284 281 278 276 272 269
299 298 290 287 268 264 263 262 264 264 277 293 300 299 291 288 285 279 288 284 271 281 287 289 291 291 289 287 287 289 289 288 286 284 282 281 281 278
301 299 294 293 287 279 272 272 271 278 278 288 295 296 293 292 293 291 284 275 279 285 290 291 290 290 287 288 290 289 288 287 285 284 282 281 277 275
305 298 295 292 284 279 281 276 284 289 286 286 288 293 297 298 296 299 298 282 282 287 287 287 287 289 288 289 289 289 289 287 284 282 279 277 274 271
299 293 294 302 308 308 310 307 303 298 298 299 305 310 305 306 304 303 301 301 289 282 283 282 281 275 276 281 285 285 284 282 280 277 275 273 270 268
294 290 291 298 305 317 315 311 310 313 315 307 303 302 304 304 303 301 303 302 300 292 284 291 285 281 277 268 279 283 283 283 282 280 277 274 271 267
290 293 303 307 314 299 300 306 312 312 311 308 304 303 303 304 302 301 299 296 296 301 299 294 290 287 284 283 287 286 286 284 282 280 278 274 269 265
286 289 292 294 295 303 307 311 297 299 304 304 293 295 301 300 297 300 299 297 292 288 284 290 294 290 289 283 285 284 283 281 280 279 276 274 271 268
288 292 298 294 304 316 321 309 306 309 314 311 310 310 309 309 308 307 304 303 301 300 290 281 291 295 290 283 279 282 284 285 285 284 281 276 271 268
287 284 306 315 316 322 321 314 316 312 312 316 315 309 304 301 307 306 303 300 300 301 289 279 295 304 297 269 261 271 276 280 283 283 281 277 272 265
307 304 299 318 323 326 327 320 310 317 324 318 309 304 303 304 304 300 294 293 296 294 297 300 297 295 289 296 296 286 273 275 281 280 280 277 271 264
316 309 308 323 328 329 328 318 321 329 321 310 307 308 308 306 304 301 297 291 284 286 291 292 290 292 295 295 299 296 292 287 283 281 274 274 272 266
315 320 324 329 332 329 320 323 329 322 310 310 310 307 300 294 299 303 303 298 293 285 281 279 282 289 288 289 291 291 302 300 286 278 276 270 263 258
312 318 328 330 328 323 322 321 315 310 314 311 308 305 304 303 307 311 313 315 311 306 292 280 278 286 293 287 284 291 300 295 292 291 288 281 271 261
328 326 323 324 322 320 318 317 316 316 314 310 308 308 309 311 312 314 310 310 310 313 320 319 308 291 278 276 287 297 307 307 307 312 310 303 290 275
337 327 321 319 318 319 318 317 315 314 312 310 306 305 308 310 311 313 311 310 312 314 316 321 327 328 323 288 254 296 315 322 329 328 327 322 309 302
335 318 316 317 315 313 311 310 310 309 308 305 304 306 306 307 308 310 313 314 313 313 316 319 326 331 332 328 314 317 328 333 338 342 343 337 332 334
323 318 316 314 311 309 309 310 309 309 309 307 306 305 305 305 306 308 310 312 313 317 319 321 326 331 325 313 307 307 327 340 344 349 349 339 344 354
321 318 313 310 307 307 307 307 306 305 305 305 303 303 304 304 303 305 306 311 316 317 320 317 311 320 312 313 316 323 328 342 350 355 356 353 356 7
317 314 311 306 307 306 306 306 306 305 305 303 301 301 301 300 301 304 305 308 311 314 311 303 308 319 332 338 330 326 333 340 346 357 10 18 13 7
315 312 308 306 304 303 303 303 303 301 300 299 299 298 300 301 300 299 301 304 311 316 317 314 320 327 323 320 327 326 338 346 347 353 4 9 18 22